{"data":{"norad_id":66173,"epoch":"2026-09-20T08:41:45.636000Z","epoch_age_seconds":112330,"freshness":"FRESH","line1":"1 66173U 25240AD  26263.36233375  .00010300  00000+0  31561-3 0  9999","line2":"2 66173  53.1571 234.3178 0001133 100.3231 259.7900 15.34395419 51858","mean_motion":15.34395419,"eccentricity":0.0001133,"inclination_deg":53.1571,"raan_deg":234.3178,"arg_perigee_deg":100.3231,"mean_anomaly_deg":259.79,"bstar":0.00031561,"rev_number":5185,"period_min":93.848038267638,"perigee_km":461.94178719651,"apogee_km":463.49192468026,"semimajor_km":6840.8538559384,"source":"CELESTRAK","updated_at":"2026-09-21T09:00:35.833105Z"}}